TimeMDT,TemperatureF,Dew PointF,Humidity,Sea Level PressureIn,VisibilityMPH,Wind Direction,Wind SpeedMPH,Gust SpeedMPH,PrecipitationIn,Events,Conditions,WindDirDegrees,DateUTC
12:53 AM,53.1,39.0,59,29.58,10.0,SW,18.4,27.6,N/A,,Clear,230,2013-09-22 06:53:00
1:53 AM,52.0,37.9,59,29.59,10.0,SW,11.5,20.7,N/A,,Clear,230,2013-09-22 07:53:00
2:53 AM,51.1,37.9,61,29.60,10.0,SW,11.5,21.9,N/A,,Clear,230,2013-09-22 08:53:00
3:53 AM,51.1,37.9,61,29.60,10.0,SW,13.8,-,N/A,,Clear,230,2013-09-22 09:53:00
4:53 AM,51.1,37.9,61,29.61,10.0,SW,6.9,-,N/A,,Clear,230,2013-09-22 10:53:00
5:53 AM,50.0,37.9,63,29.64,10.0,WSW,13.8,-,N/A,,Clear,250,2013-09-22 11:53:00
6:53 AM,48.0,39.0,71,29.67,10.0,WSW,11.5,-,N/A,,Clear,250,2013-09-22 12:53:00
7:53 AM,46.9,39.0,74,29.70,10.0,WSW,9.2,-,N/A,,Clear,250,2013-09-22 13:53:00
8:53 AM,50.0,39.9,68,29.71,10.0,WSW,16.1,24.2,N/A,,Clear,250,2013-09-22 14:53:00
9:53 AM,54.0,41.0,62,29.73,10.0,WSW,19.6,26.5,N/A,,Clear,250,2013-09-22 15:53:00
10:53 AM,55.9,41.0,57,29.73,10.0,West,19.6,26.5,N/A,,Clear,260,2013-09-22 16:53:00
11:53 AM,59.0,43.0,55,29.71,10.0,West,13.8,27.6,N/A,,Clear,260,2013-09-22 17:53:00
12:53 PM,61.0,42.1,50,29.70,10.0,West,13.8,25.3,N/A,,Clear,260,2013-09-22 18:53:00
1:53 PM,63.0,41.0,45,29.69,10.0,West,18.4,25.3,N/A,,Clear,260,2013-09-22 19:53:00
2:53 PM,63.0,41.0,45,29.69,10.0,West,18.4,31.1,N/A,,Scattered Clouds,260,2013-09-22 20:53:00
3:53 PM,63.0,39.9,43,29.69,10.0,West,19.6,31.1,N/A,,Clear,260,2013-09-22 21:53:00
4:53 PM,62.1,39.9,44,29.69,10.0,West,16.1,24.2,N/A,,Scattered Clouds,270,2013-09-22 22:53:00
5:53 PM,61.0,39.9,46,29.71,10.0,West,16.1,25.3,N/A,,Partly Cloudy,280,2013-09-22 23:53:00
6:53 PM,57.9,39.0,49,29.74,10.0,West,12.7,24.2,N/A,,Clear,270,2013-09-23 00:53:00
7:53 PM,55.0,37.9,53,29.76,10.0,West,10.4,-,N/A,,Clear,260,2013-09-23 01:53:00
8:53 PM,51.1,37.9,61,29.79,10.0,WSW,8.1,-,N/A,,Clear,240,2013-09-23 02:53:00
9:53 PM,50.0,37.9,63,29.81,10.0,SW,9.2,-,N/A,,Partly Cloudy,230,2013-09-23 03:53:00
10:53 PM,48.9,37.9,66,29.83,10.0,SW,10.4,-,N/A,,Clear,220,2013-09-23 04:53:00
11:53 PM,48.9,37.0,64,29.83,10.0,SW,9.2,-,N/A,,Clear,230,2013-09-23 05:53:00